Regional Weather Roundup
Issued by NWS

Home | Current Version | Previous Version | Text Only | Print | Product List | Glossary Off
Versions: 1 2 3 4 5 6 7 8 9 10 11 12 13 14 15 16 17 18 19 20 21 22 23 24 25 26 27 28 29 30 31 32 33 34 35 36 37 38 39 40 41 42 43 44 45 46 47 48 49 50

000
ASUS43 KOAX 282202
RWRNE

WEATHER ROUNDUP FOR NEBRASKA
NATIONAL WEATHER SERVICE OMAHA NE
500 PM CDT TUE MAR 28 2017

NOTES: SATELLITE DATA IS BEING USED TO AUGMENT CLOUD COVER ABOVE
       12000 FEET.
       "FAIR" INDICATES FEW OR NO CLOUDS BELOW 12,000 FEET WITH NO
       SIGNIFICANT WEATHER AND/OR OBSTRUCTIONS TO VISIBILITY.

  * THESE STATIONS DO NOT REPORT WEATHER SUCH AS RAIN...SNOW OR FOG.

NEZ001>004-019>022-054>056-282300-
NEBRASKA PANHANDLE

CITY           SKY/WX    TMP DP  RH WIND       PRES   REMARKS
SCOTTSBLUFF    RAIN      45  42  89 E10       29.97R FOG
ALLIANCE       RAIN      42  41  96 E13       29.98R FOG
CHADRON        LGT RAIN  46  43  89 NE9       30.02S
KIMBALL        LGT RAIN  43  43 100 E13       29.94R
SIDNEY         LGT RAIN  43  41  93 E20G26    29.94R FOG
$$

NEZ057>060-069>072-079>082-282300-
SOUTHWEST NEBRASKA

CITY           SKY/WX    TMP DP  RH WIND       PRES   REMARKS
NORTH PLATTE   LGT RAIN  47  44  90 E12       30.01R FOG
IMPERIAL       LGT RAIN  44  42  93 SE17      29.99R FOG
LEXINGTON      LGT RAIN  49  41  74 E10       30.03R
MCCOOK         LGT RAIN  47  46  97 E7        30.01R FOG
OGALLALA       LGT RAIN  46  43  90 E14G22    30.00R
$$

NEZ005>010-023>029-035>040-094-282300-
NORTH CENTRAL NEBRASKA

CITY           SKY/WX    TMP DP  RH WIND       PRES   REMARKS
VALENTINE      LGT RAIN  46  42  86 E13       30.07R FOG
AINSWORTH      CLOUDY    49  42  75 E7        30.05S
BROKEN BOW     CLOUDY    48  38  68 E13       30.03R
O`NEILL        CLOUDY    54  38  54 E13       30.06S
ORD            PTSUNNY   51  38  60 E10       30.03S
THEDFORD       RAIN      47  43  86 E6        30.04S
$$

NEZ041-046>049-061>064-073>077-083>087-282300-
SOUTH CENTRAL NEBRASKA

CITY           SKY/WX    TMP DP  RH WIND       PRES   REMARKS
GRAND ISLAND   CLOUDY    48  41  76 E15       30.04R
AURORA         CLOUDY    47  41  79 E10       30.04R
HASTINGS       CLOUDY    50  40  68 E13       30.04R
HEBRON         CLOUDY    51  41  68 E12       30.03R
HOLDREGE       CLOUDY    50  40  69 E13       30.02R
KEARNEY *      CLOUDY    48  37  66 E14       30.04R
YORK           CLOUDY    46  41  81 E14       30.04R
$$

NEZ011>018-030>034-042>045-282300-
NORTHEAST NEBRASKA

CITY           SKY/WX    TMP DP  RH WIND       PRES   REMARKS
NORFOLK        CLOUDY    55  40  56 E13       30.04S
ALBION         CLOUDY    55  41  60 SE13      30.04F
BLAIR          CLOUDY    50  43  77 E9        30.06S
FREMONT        CLOUDY    50  41  71 E12       30.07R
TEKAMAH        CLOUDY    54  43  66 E14       30.06S
WAYNE          MOSUNNY   60  41  49 E14       30.04S
$$

NEZ050>053-065>068-078-088>093-282300-
SOUTHEAST NEBRASKA

CITY           SKY/WX    TMP DP  RH WIND       PRES   REMARKS
LINCOLN        CLOUDY    51  42  71 NE13      30.06F
OMAHA EPPLEY   CLOUDY    51  41  68 E13       30.07S
BEATRICE       CLOUDY    51  42  70 E14       30.02R
FALLS CITY     CLOUDY    52  46  80 E12       30.02F
NEBRASKA CITY  CLOUDY    50  40  69 NE8       30.04F
PLATTSMOUTH    CLOUDY    49  39  67 E9        30.06S
$$

NEZ044-045-051>053-067-282300-
OMAHA AREA

CITY           SKY/WX    TMP DP  RH WIND       PRES   REMARKS
OMAHA EPPLEY   CLOUDY    51  41  68 E13       30.07S
BLAIR          CLOUDY    50  43  77 E9        30.06S
FREMONT        CLOUDY    50  41  71 E12       30.07R
MILLARD        CLOUDY    51  43  75 E7        30.07S
OFFUTT AFB     CLOUDY    49  42  75 E9        30.06F
PLATTSMOUTH    CLOUDY    49  39  67 E9        30.06S
WAHOO          CLOUDY    49  42  78 E9        30.07S
$$




USA.gov is the U.S. government's official web portal to all federal, state and local government web resources and services.